Location: Newark
(37.9717°N, 99.9089°W)
Time: 09:51:14
(UTC+00:00)

N. Korean satellite - Pass Details

Date: 02 October 2021
Orbit: 450 x 495 km, 97.3° (Epoch: 15 October)

Event Time Altitude Azimuth Distance (km) Brightness Sun altitude
Rises 11:14:44 0° 25° (NNE) 2,555 10.7 -16.9°
Reaches altitude 10° 11:17:04 10° 39° (NE) 1,678 10.0 -16.4°
Maximum altitude 11:20:05 25° 96° (E) 1,031 9.1 -15.9°
Drops below altitude 10° 11:23:06 10° 153° (SSE) 1,681 9.5 -15.3°
Sets 11:25:27 0° 167° (SSE) 2,562 10.3 -14.8°
